This is the latest recevied weather packets stored in our database for station/object K6TTR. If no packets are shown the sender has not sent any weather packets the latest 10 day(s).
| Time | Temp. | Humidity | Pressure | Rain* | Wind** | Luminosity | Snow |
|---|---|---|---|---|---|---|---|
| 1777815516 | 8.89° C | 82% | 1014.3 hPa | 0 mm | - | 19 W/m² | - |
| 1777815222 | 8.89° C | 83% | 1014.2 hPa | 0 mm | - | 16 W/m² | - |
| 1777814926 | 8.33° C | 85% | 1014.3 hPa | 0 mm | - | 12 W/m² | - |
| 1777814612 | 8.33° C | 86% | 1014.3 hPa | 0 mm | - | 11 W/m² | - |
| 1777814317 | 8.33° C | 87% | 1014.3 hPa | 0 mm | - | 7 W/m² | - |
| 1777814024 | 7.78° C | 88% | 1014.4 hPa | 0 mm | - | 5 W/m² | - |
| 1777813725 | 7.78° C | 88% | 1014.3 hPa | 0 mm | - | 0 W/m² | - |
| 1777813430 | 7.78° C | 89% | 1014.3 hPa | 0 mm | - | 0 W/m² | - |
| 1777813117 | 7.78° C | 88% | 1014.3 hPa | 0 mm | - | 0 W/m² | - |
| 1777812823 | 7.78° C | 88% | 1014.1 hPa | 0 mm | - | 0 W/m² | - |
| 1777812529 | 7.78° C | 89% | 1014.3 hPa | 0 mm | - | 0 W/m² | - |
| 1777812215 | 7.78° C | 89% | 1014.2 hPa | 0 mm | - | 0 W/m² | - |
| 1777811919 | 7.78° C | 89% | 1014.2 hPa | 0 mm | - | 0 W/m² | - |
| 1777811624 | 7.78° C | 89% | 1014.2 hPa | 0 mm | - | 0 W/m² | - |
| 1777811330 | 7.78° C | 89% | 1014.3 hPa | 0 mm | - | 0 W/m² | - |
| 1777811014 | 7.78° C | 89% | 1014.3 hPa | 0 mm | - | 0 W/m² | - |
| 1777810721 | 7.78° C | 89% | 1014.3 hPa | 0 mm | - | 0 W/m² | - |
| 1777810424 | 7.78° C | 89% | 1014.5 hPa | 0 mm | - | 0 W/m² | - |
| 1777810128 | 7.78° C | 89% | 1014.5 hPa | 0 mm | - | 0 W/m² | - |
| 1777809828 | 7.78° C | 89% | 1014.5 hPa | 0 mm | - | 0 W/m² | - |
| 1777809514 | 7.78° C | 89% | 1014.7 hPa | 0 mm | - | 0 W/m² | - |
| 1777809218 | 7.78° C | 89% | 1014.7 hPa | 0 mm | - | 0 W/m² | - |
| 1777808924 | 7.78° C | 89% | 1013.9 hPa | 0 mm | - | 0 W/m² | - |
| 1777808613 | 7.78° C | 89% | 1013.8 hPa | 0 mm | - | 0 W/m² | - |
| 1777808318 | 7.78° C | 89% | 1013.9 hPa | 0 mm | - | 0 W/m² | - |
* Rain latest hour (hover to see other rain measurements)
** Current wind speed in m/s (hover to see current wind gust speed)